Location: Daerah Kuala Lumpur
(3.1167°N, 101.6833°E)
Time: 20:39:14
(UTC+00:00)

CZ-4C R/B - Pass Details

Date: 14 November 2024
Orbit: 514 x 1473 km, 63.4° (Epoch: 13 December)

Event Time Altitude Azimuth Distance (km) Brightness Sun altitude
Rises 13:40:34 0° 327° (NNW) 4,403 6.0 -39.4°
Reaches altitude 10° 13:43:27 10° 323° (NW) 3,502 5.5 -40.1°
Maximum altitude 13:52:06 56° 248° (WSW) 1,711 3.8 -42.1°
Drops below altitude 10° 14:00:49 10° 172° (S) 3,513 5.5 -44.1°
Sets 14:03:44 0° 168° (SSE) 4,416 6.0 -44.8°
